This demonstration page uses our WeatherBlox Daily Observations layout. Learn more.

Left ArrowRight Arrow

44.8408, -93.29828

Hourly Observations for June 20, 2015

Temp ( °F °C ) Dew Point ( °F °C ) Humidity (%) Winds ( mph kmh ) Pressure ( in mb ) Visibility ( mi km ) Precip ( " mm )
12:53 am 00:53 Mostly Cloudy 72 22.2 57 13.9 59 59 S 12 19 29.82 1010 10 16 0.00 0.00
1:53 am 01:53 Cloudy 73 22.8 57 13.9 57 57 SSE 15 24 29.77 1008 10 16 0.00 0.00
2:53 am 02:53 Mostly Cloudy 72 22.2 57 13.9 59 59 S 13 20 29.78 1009 10 16 0.00 0.00
3:53 am 03:53 Cloudy 69 20.6 60 15.6 73 73 SSE 8 13 29.78 1008 10 16 0.00 0.03
4:53 am 04:53 Cloudy 68 20 59 15 73 73 SE 6 9 29.76 1008 10 16 0.00 0.00
5:37 am 05:37 Cloudy with Nearby Thunderstorms 70 21 59 15 69 69 S 3 6 29.83 1010 10 16 0.00 0.00
5:43 am 05:43 Cloudy with Thunderstorms 69 20.6 60 15.6 73 73 SW 5 7 29.83 1010 7 11 0.00 0.03
5:49 am 05:49 Cloudy with Strong Thunderstorms 68 20 61 16 78 78 SSW 7 11 29.83 1010 2 3 0.02 0.51
5:53 am 05:53 Cloudy with Strong Thunderstorms 67 19.4 60 15.6 79 79 SSW 3 6 29.81 1009 2 2 0.07 1.78
6:04 am 06:04 Cloudy with Thunderstorms 66 18.9 61 16.1 84 84 S 14 22 29.80 1009 3 5 0.06 1.52
6:23 am 06:23 Cloudy with Rain 64 17.8 61 16.1 90 90 SE 14 22 29.74 1007 3 5 0.13 3.30
6:34 am 06:34 Cloudy with Rain 64 17.8 62 16.7 93 93 ESE 17 28 29.68 1005 4 6 0.18 4.57
6:53 am 06:53 Cloudy with Light Rain 64 17.8 61 16.1 90 90 SE 17 28 29.69 1005 8 13 0.20 5.08
7:35 am 07:35 Mostly Cloudy with Light Rain 65 18.3 61 16.1 87 87 SSW 12 19 29.74 1007 7 11 0.01 0.25
7:39 am 07:39 Mostly Cloudy with Heavy Rain 64 17.8 61 16.1 90 90 SSW 12 19 29.74 1007 2 3 0.02 0.51
7:53 am 07:53 Cloudy with Rain 64 17.8 62 16.7 93 93 S 13 20 29.70 1006 1 2 0.15 3.81
7:56 am 07:56 Cloudy with Rain 64 17.8 62 16.7 93 93 S 15 24 29.71 1006 2 2 0.01 0.25
8:12 am 08:12 Cloudy with Light Rain 63 17.2 62 16.7 97 97 SE 17 28 29.65 1004 7 11 0.01 0.25
8:16 am 08:16 Cloudy 64 18 63 17 94 94 SSE 18 30 29.65 1004 9 14 0.00 0.00
8:53 am 08:53 Cloudy 66 18.9 62 16.7 87 87 S 12 19 29.68 1005 10 16 0.01 0.25
9:53 am 09:53 Partly Cloudy 71 21.7 64 17.8 79 79 WSW 9 15 29.69 1005 10 16 0.00 0.00
10:53 am 10:53 Mostly Cloudy 75 23.9 64 17.8 69 69 WSW 16 26 29.69 1006 10 16 0.00 0.00
11:53 am 11:53 Mostly Cloudy 76 24.4 65 18.3 69 69 W 15 24 29.70 1006 10 16 0.00 0.00
12:50 pm 12:50 Cloudy 77 25 64 18 65 65 W 12 19 29.68 1005 10 16 0.00 0.00
12:53 pm 12:53 Cloudy 77 25 65 18.3 66 66 W 10 17 29.70 1006 10 16 0.00 0.00
1:03 pm 13:03 Cloudy 77 25 64 18 65 65 W 10 17 29.68 1005 10 16 0.00 0.00
1:26 pm 13:26 Cloudy 77 25 66 19 69 69 W 10 17 29.71 1006 10 16 0.00 0.00
1:53 pm 13:53 Mostly Cloudy 79 26.1 66 18.9 65 65 WNW 10 17 29.71 1006 10 16 0.00 0.00
2:53 pm 14:53 Mostly Cloudy 80 26.7 65 18.3 60 60 WNW 14 22 29.72 1006 10 16 0.00 0.00
3:53 pm 15:53 Mostly Cloudy 78 25.6 64 17.8 62 62 WNW 12 19 29.74 1007 10 16 0.00 0.00
4:53 pm 16:53 Mostly Cloudy 81 27.2 63 17.2 54 54 WNW 10 17 29.75 1007 10 16 0.00 0.00
5:53 pm 17:53 Partly Cloudy 81 27.2 62 16.7 53 53 NNW 10 17 29.74 1007 10 16 0.00 0.00
6:53 pm 18:53 Mostly Cloudy 81 27.2 63 17.2 54 54 NW 7 11 29.75 1007 10 16 0.00 0.00
7:53 pm 19:53 Partly Cloudy 80 26.7 62 16.7 54 54 NW 10 17 29.74 1007 10 16 0.00 0.00
8:53 pm 20:53 Mostly Cloudy 76 24.4 62 16.7 62 62 WNW 8 13 29.75 1007 10 16 0.00 0.00
9:53 pm 21:53 Mostly Cloudy 77 25 62 16.7 60 60 W 3 6 29.78 1009 10 16 0.00 0.00

Powered by AerisWeather